FW9061 Weather Reports


time (UTC)temp
F
wind
direction
speed
knots
gust
knots
rain 1hr
in
rain 24hr
in
rain mn
in
humidity
%
barometer
mb
20260504001718 81 128 0.0 1.7 0.00 0.00 0.00 34 1009.4
20260504001214 82 130 0.0 0.9 0.00 0.00 0.00 33 1009.8
20260504000711 82 138 0.9 2.6 0.00 0.00 0.00 32 1009.8
20260504000208 82 121 0.0 0.9 0.00 0.00 0.00 33 1009.8
20260503235706 81 120 0.0 0.9 0.00 0.00 0.00 33 1009.9
20260503235203 82 128 0.9 0.9 0.00 0.00 0.00 33 1009.9
20260503234701 82 147 0.0 0.9 0.00 0.00 0.00 34 1009.9
20260503234159 82 124 0.0 1.7 0.00 0.00 0.00 33 1010.0
20260503233655 82 125 0.0 0.9 0.00 0.00 0.00 34 1010.0
20260503233151 83 133 0.0 0.9 0.00 0.00 0.00 34 1010.1
20260503232648 83 118 0.0 0.0 0.00 0.00 0.00 34 1010.0
20260503232145 83 152 0.0 3.5 0.00 0.00 0.00 33 1010.2
20260503231644 82 149 0.9 1.7 0.00 0.00 0.00 34 1010.4
20260503231139 83 168 0.9 2.6 0.00 0.00 0.00 34 1010.4
20260503230636 83 122 0.0 2.6 0.00 0.00 0.00 35 1010.5
20260503230134 83 123 0.9 0.9 0.00 0.00 0.00 31 1010.5
20260503225631 83 138 0.0 0.9 0.00 0.00 0.00 31 1010.6
20260503225131 82 138 0.0 0.9 0.00 0.00 0.00 32 1010.8
20260503224628 82 142 0.0 0.9 0.00 0.00 0.00 32 1010.7
20260503224126 82 154 0.0 2.6 0.00 0.00 0.00 31 1010.8
20260503223624 82 139 0.9 3.5 0.00 0.00 0.00 32 1010.8
20260503223120 81 252 1.7 2.6 0.00 0.00 0.00 33 1011.0
20260503222617 82 168 0.0 3.5 0.00 0.00 0.00 34 1010.9
20260503222115 82 216 1.7 2.6 0.00 0.00 0.00 33 1011.1
20260503221613 82 146 0.0 1.7 0.00 0.00 0.00 34 1011.1
20260503221110 81 135 0.0 0.9 0.00 0.00 0.00 33 1011.3
20260503220607 81 121 1.7 2.6 0.00 0.00 0.00 34 1011.3
20260503220104 82 246 1.7 1.7 0.00 0.00 0.00 33 1011.2
20260503215601 81 141 0.9 3.5 0.00 0.00 0.00 33 1011.2
20260503215057 81 153 0.9 0.9 0.00 0.00 0.00 31 1011.2
20260503214556 80 122 0.0 0.9 0.00 0.00 0.00 32 1011.3
20260503214052 80 143 0.9 2.6 0.00 0.00 0.00 31 1011.5
20260503213551 80 139 0.0 1.7 0.00 0.00 0.00 33 1011.4
20260503213047 80 177 0.9 2.6 0.00 0.00 0.00 32 1011.5
20260503212544 80 120 0.9 0.9 0.00 0.00 0.00 35 1011.5
20260503212042 80 114 0.9 0.9 0.00 0.00 0.00 33 1011.5
20260503211539 80 128 0.0 2.6 0.00 0.00 0.00 34 1011.8
20260503211034 79 143 1.7 1.7 0.00 0.00 0.00 35 1011.7
20260503210531 79 190 0.9 2.6 0.00 0.00 0.00 34 1011.7
20260503210027 79 158 0.9 1.7 0.00 0.00 0.00 35 1011.6
20260503205524 79 64 1.7 2.6 0.00 0.00 0.00 36 1011.8
20260503205020 79 110 0.9 1.7 0.00 0.00 0.00 36 1012.0
20260503204517 78 133 0.0 1.7 0.00 0.00 0.00 36 1011.8
20260503204014 78 251 1.7 2.6 0.00 0.00 0.00 36 1012.1
20260503203511 78 141 0.0 3.5 0.00 0.00 0.00 37 1012.0
20260503203008 80 355 1.7 3.5 0.00 0.00 0.00 36 1012.2
20260503202506 80 219 0.0 0.9 0.00 0.00 0.00 34 1012.2
20260503202004 79 131 0.9 0.9 0.00 0.00 0.00 35 1012.1
20260503201501 79 127 0.0 1.7 0.00 0.00 0.00 35 1012.4
20260503200959 78 165 0.0 0.9 0.00 0.00 0.00 35 1012.2
20260503200455 78 115 0.0 1.7 0.00 0.00 0.00 35 1012.4
20260503195951 78 128 0.9 1.7 0.00 0.00 0.00 35 1012.3
20260503195449 78 129 1.7 1.7 0.00 0.00 0.00 37 1012.5
20260503194945 79 167 0.9 1.7 0.00 0.00 0.00 36 1012.6
20260503194443 79 175 0.0 0.9 0.00 0.00 0.00 37 1012.5
20260503193938 79 143 0.9 0.9 0.00 0.00 0.00 37 1012.6
20260503193433 78 135 0.9 1.7 0.00 0.00 0.00 37 1012.6
20260503192929 78 124 0.0 2.6 0.00 0.00 0.00 38 1012.8
20260503192426 78 126 0.9 0.9 0.00 0.00 0.00 36 1012.8
20260503191921 78 84 1.7 2.6 0.00 0.00 0.00 38 1012.7
20260503191420 77 185 0.0 0.9 0.00 0.00 0.00 40 1013.0
20260503190915 77 125 0.0 0.9 0.00 0.00 0.00 40 1013.1
20260503190413 77 130 0.0 0.9 0.00 0.00 0.00 40 1013.0
20260503185909 77 136 0.9 1.7 0.00 0.00 0.00 41 1013.2
20260503185406 76 143 0.9 0.9 0.00 0.00 0.00 40 1013.3
20260503184905 76 121 0.0 2.6 0.00 0.00 0.00 40 1013.3
20260503184402 75 118 0.0 2.6 0.00 0.00 0.00 41 1013.2
20260503183858 75 130 0.0 2.6 0.00 0.00 0.00 43 1013.4
20260503183355 75 116 0.9 0.9 0.00 0.00 0.00 43 1013.3
20260503182852 75 103 0.0 1.7 0.00 0.00 0.00 42 1013.4
20260503182351 74 137 0.0 0.9 0.00 0.00 0.00 43 1013.6
20260503181848 74 118 0.9 0.9 0.00 0.00 0.00 43 1013.5
20260503181345 74 128 0.0 0.9 0.00 0.00 0.00 44 1013.6
20260503180841 74 130 0.0 0.9 0.00 0.00 0.00 44 1013.5
20260503180340 74 133 0.0 0.9 0.00 0.00 0.00 45 1013.5
20260503175836 74 123 0.0 0.9 0.00 0.00 0.00 47 1013.5
20260503175334 73 136 0.0 0.9 0.00 0.00 0.00 47 1013.5
20260503174834 72 130 0.0 0.9 0.00 0.00 0.00 49 1013.6
20260503174333 72 122 0.0 0.9 0.00 0.00 0.00 50 1013.6
20260503173828 71 131 0.0 1.7 0.00 0.00 0.00 52 1013.6
20260503173325 71 111 0.9 0.9 0.00 0.00 0.00 51 1013.5
20260503172821 70 125 0.0 0.9 0.00 0.00 0.00 52 1013.7
20260503172319 70 134 0.0 0.9 0.00 0.00 0.00 52 1013.7
20260503171815 69 134 0.0 0.9 0.00 0.00 0.00 52 1013.7
20260503171312 69 128 0.0 0.9 0.00 0.00 0.00 54 1013.8
20260503170809 68 122 0.0 0.9 0.00 0.00 0.00 53 1013.7
20260503170306 68 123 0.0 0.0 0.00 0.00 0.00 54 1013.6
20260503150658 60 118 0.0 0.0 0.00 0.00 0.00 66 1013.9
20260503150154 60 118 0.0 0.0 0.00 0.00 0.00 66 1013.7
20260503140118 59 120 0.0 0.0 0.00 0.00 0.00 64 1013.8
20260503131048 57 133 0.0 0.0 0.00 0.00 0.00 71 1013.8
20260503130545 57 132 0.0 0.9 0.00 0.00 0.00 71 1013.7
20260503110435 58 113 0.0 0.0 0.00 0.00 0.00 63 1014.0
20260503090326 61 124 0.0 0.0 0.00 0.00 0.00 53 1014.1
20260503081254 62 122 0.0 0.0 0.00 0.00 0.00 51 1014.0
20260503080749 62 125 0.0 0.0 0.00 0.00 0.00 51 1014.1
20260503080247 62 124 0.0 0.0 0.00 0.00 0.00 51 1014.1
20260503072724 63 136 0.0 0.9 0.00 0.00 0.00 50 1013.9
20260503072220 62 136 0.0 0.9 0.00 0.00 0.00 50 1013.9
20260503071717 63 136 0.0 0.0 0.00 0.00 0.00 50 1014.0
20260503071214 63 136 0.0 0.0 0.00 0.00 0.00 50 1014.0
20260503070710 63 137 0.0 0.9 0.00 0.00 0.00 50 1014.1
20260503070209 63 136 0.0 0.0 0.00 0.00 0.00 50 1014.0
20260503060133 64 134 0.0 0.0 0.00 0.00 0.00 49 1013.8
20260503055125 64 132 0.0 0.0 0.00 0.00 0.00 48 1013.9
20260503054620 64 122 0.0 0.0 0.00 0.00 0.00 49 1013.8
20260503054117 64 122 0.0 0.0 0.00 0.00 0.00 49 1013.8
20260503053615 64 126 0.0 0.0 0.00 0.00 0.00 48 1013.8
20260503053114 64 124 0.0 0.9 0.00 0.00 0.00 49 1013.9
20260503052610 64 116 0.0 0.0 0.00 0.00 0.00 49 1014.0
20260503052106 64 116 0.0 0.0 0.00 0.00 0.00 49 1013.7
20260503051601 64 134 0.0 0.0 0.00 0.00 0.00 49 1013.8
20260503051100 64 118 0.0 0.0 0.00 0.00 0.00 49 1013.7
20260503050555 64 126 0.0 0.0 0.00 0.00 0.00 49 1013.8
20260503050053 64 128 0.0 0.9 0.00 0.00 0.00 48 1013.7
20260503045550 64 119 0.0 0.0 0.00 0.00 0.00 48 1013.8
20260503045047 64 119 0.0 0.0 0.00 0.00 0.00 48 1014.0
20260503044544 65 121 0.0 0.0 0.00 0.00 0.00 49 1013.8
20260503044041 65 120 0.0 0.9 0.00 0.00 0.00 48 1013.6
20260503043537 65 120 0.0 0.0 0.00 0.00 0.00 48 1013.8
20260503043034 65 126 0.0 0.0 0.00 0.00 0.00 48 1013.7
20260503042531 65 131 0.0 0.9 0.00 0.00 0.00 48 1013.6
20260503042027 65 121 0.0 0.0 0.00 0.00 0.00 49 1013.6
20260503041524 65 125 0.0 0.9 0.00 0.00 0.00 48 1013.8
20260503041022 65 114 0.0 0.0 0.00 0.00 0.00 48 1013.6
20260503040519 65 113 0.0 0.0 0.00 0.00 0.00 49 1013.6
20260503040016 65 114 0.0 0.0 0.00 0.00 0.00 49 1013.3
20260503035513 65 112 0.0 0.0 0.00 0.00 0.00 49 1013.4
20260503035011 65 115 0.0 0.0 0.00 0.00 0.00 51 1013.3
20260503034508 65 114 0.0 0.0 0.00 0.00 0.00 50 1013.3
20260503034004 65 116 0.0 0.0 0.00 0.00 0.00 50 1013.3
20260503033502 65 122 0.0 0.0 0.00 0.00 0.00 51 1013.0
20260503033000 66 123 0.0 0.0 0.00 0.00 0.00 53 1012.8
20260503032458 66 124 0.0 0.0 0.00 0.00 0.00 52 1012.8
20260503031955 66 125 0.0 0.0 0.00 0.00 0.00 52 1012.7
20260503031453 67 117 0.0 0.0 0.00 0.00 0.00 51 1012.6
20260503030949 67 113 0.0 0.0 0.00 0.00 0.00 49 1012.7
20260503030446 67 113 0.0 0.9 0.00 0.00 0.00 49 1012.7
20260503025943 67 114 0.0 0.0 0.00 0.00 0.00 48 1012.7
20260503025440 68 115 0.0 0.0 0.00 0.00 0.00 48 1012.6
20260503024937 68 116 0.0 0.0 0.00 0.00 0.00 48 1012.5
20260503024434 68 114 0.0 0.9 0.00 0.00 0.00 48 1012.6
20260503023931 68 105 0.0 1.7 0.00 0.00 0.00 47 1012.5
20260503023428 68 91 0.9 0.9 0.00 0.00 0.00 48 1012.2
20260503022925 69 116 0.0 1.7 0.00 0.00 0.00 47 1012.4
20260503022420 69 113 0.0 0.9 0.00 0.00 0.00 47 1012.4
20260503021916 69 120 0.0 0.9 0.00 0.00 0.00 47 1012.5
20260503021412 70 105 0.9 0.9 0.00 0.00 0.00 46 1012.6
20260503020909 70 116 0.0 0.9 0.00 0.00 0.00 47 1012.5
20260503020407 70 118 0.9 0.9 0.00 0.00 0.00 46 1012.6
20260503015903 70 125 0.0 0.9 0.00 0.00 0.00 45 1012.7
20260503015400 71 108 0.0 1.7 0.00 0.00 0.00 44 1012.8
20260503014856 71 82 0.9 0.9 0.00 0.00 0.00 44 1012.8
20260503014354 71 104 0.9 1.7 0.00 0.00 0.00 43 1012.6
20260503013852 71 91 0.0 1.7 0.00 0.00 0.00 44 1012.7
20260503013348 72 117 0.9 1.7 0.00 0.00 0.00 44 1012.6
20260503012845 72 107 1.7 1.7 0.00 0.00 0.00 44 1012.4
20260503012343 72 94 0.9 1.7 0.00 0.00 0.00 43 1012.6
20260503011840 72 97 0.9 1.7 0.00 0.00 0.00 43 1012.5
20260503011337 72 141 0.9 1.7 0.00 0.00 0.00 43 1012.7
20260503010833 72 121 1.7 1.7 0.00 0.00 0.00 43 1012.5
20260503010330 73 130 0.0 1.7 0.00 0.00 0.00 43 1012.7
20260503005827 73 107 0.9 1.7 0.00 0.00 0.00 45 1013.0
20260503005324 73 102 0.9 2.6 0.00 0.00 0.00 44 1012.7
20260503004820 73 109 0.9 1.7 0.00 0.00 0.00 44 1012.5
20260503004318 73 130 0.9 1.7 0.00 0.00 0.00 44 1012.7
20260503003816 74 125 0.9 0.9 0.00 0.00 0.00 43 1012.7
20260503003312 74 126 0.9 1.7 0.00 0.00 0.00 44 1012.8
20260503002809 74 168 0.9 0.9 0.00 0.00 0.00 43 1012.6
20260503002306 74 119 0.0 0.9 0.00 0.00 0.00 42 1012.8